Hourly Weather Roundup
Issued by NWS Central Illinois

Home | Current Version | Previous Version | Text Only | Print | Product List | Glossary On
Versions: 1 2 3 4 5 6 7 8 9 10 11 12 13 14 15 16 17 18 19 20 21 22 23 24 25 26 27 28 29 30 31 32 33 34 35 36 37 38 39 40 41 42 43 44 45 46 47 48 49 50
000
NZUS43 KILX 161410
HWRILX

AREA WEATHER ROUNDUP
NATIONAL WEATHER SERVICE, LINCOLN IL
900 AM CDT WED APR 16 2014


CITY           SKY/WX    TMP DP  RH WIND       PRES   REMARKS
BLOOMINGTON    SUNNY     37  26  65 S23G29    30.27S WCI  26
CHAMPAIGN      SUNNY     38  26  62 S16       30.31R WCI  29
DANVILLE       SUNNY     36  24  63 SE10      30.31S WCI  28
DECATUR        SUNNY     40  26  57 S16G28    30.30R WCI  31
FLORA          SUNNY     40  27  61 SE15      30.34R WCI  31
GALESBURG      MOSUNNY   40  28  61 SE20G26   30.17R WCI  31
JACKSONVILLE   SUNNY     43  26  50 S20       30.23S WCI  34
LACON          MOSUNNY   40  26  56 S18       30.23F WCI  31
LAWRENCEVILLE  SUNNY     40  24  53 SE14      30.36R WCI  32
LITCHFIELD     SUNNY     40  27  59 S16G22    30.26S WCI  31
$$


CITY           SKY/WX    TMP DP  RH WIND       PRES   REMARKS
LINCOLN        SUNNY     42  28  59 S16G22    30.28S WCI  34
MACOMB         MOSUNNY   40  28  60 S22G30    30.19S WCI  30
MATTOON        SUNNY     38  25  59 SE17G24   30.30S WCI  28
MT CARMEL AP   MOSUNNY   41  28  60 SE12      30.35S WCI  34
OLNEY-NOBLE AP SUNNY     37  28  70 SE13      30.34S WCI  29
PARIS          SUNNY     38  26  61 SE16      30.35S WCI  28
PEORIA         MOSUNNY   42  24  49 S20G28    30.22F WCI  33
PONTIAC        SUNNY     39  28  65 S22       30.29R WCI  29
RANTOUL        SUNNY     38  26  64 S15       30.33S WCI  29
ROBINSON       SUNNY     41  28  60 S12       30.36F WCI  34
SPRINGFIELD    SUNNY     42  25  50 S20G30    30.26S WCI  33
TAYLORVILLE    SUNNY     39  27  60 S20       30.27S WCI  30
$$

...REGIONAL REPORTS...


CITY           SKY/WX    TMP DP  RH WIND       PRES   REMARKS
CHICAGO O`HARE PTSUNNY   38  21  50 S15       30.30R WCI  29
KANKAKEE       SUNNY     38  26  61 SE14      30.32F WCI  30
MOLINE         MOSUNNY   39  25  57 SE16G22   30.16S WCI  30
MOUNT VERNON   MOSUNNY   41  21  45 SE13G18   30.33R WCI  34
PITTSFIELD     MOSUNNY   43  27  52 S17       30.19F
QUINCY         MOSUNNY   42  24  49 S17G29    30.14S WCI  34
ROCKFORD       PTSUNNY   36  25  64 S12       30.25F WCI  28
$$


CITY           SKY/WX    TMP DP  RH WIND       PRES   REMARKS
BURLINGTON     MOSUNNY   42  26  53 S23G32    30.11F WCI  33
CEDAR RAPIDS   PTSUNNY   40  25  55 SE16G26   30.04F WCI  31
DES MOINES     CLOUDY    48  27  44 S22G30    29.90F
KIRKSVILLE     SUNNY     47  27  45 S18       30.06S
OTTUMWA        MOSUNNY   45  27  49 S20       30.00F
ST LOUIS       PTSUNNY   44  24  45 SE21      30.25R
$$


CITY           SKY/WX    TMP DP  RH WIND       PRES   REMARKS
TERRE HAUTE    SUNNY     38  24  57 SE10      30.36S WCI  31
EVANSVILLE     MOSUNNY   39  21  48 SE13G18   30.36S WCI  31
INDIANAPOLIS   MOSUNNY   34  18  52 SE12      30.37R WCI  25
LAFAYETTE      SUNNY     36  20  52 SE13G21   30.36S WCI  27
MADISON        CLOUDY    36  23  59 SE15      30.21F WCI  27
MILWAUKEE      PTSUNNY   37  22  54 S13       30.29S WCI  29
$$




USA.gov is the U.S. government's official web portal to all federal, state and local government web resources and services.